INTELSAT 904 (IS-904) (27380 NORAD) Tracking and Keplerian Element Data

This shows tracking and keplerian element data for the satellite.

Feedback or suggestion? Click here.




ElementValue
Catalog27380
NameINTELSAT 904 (IS-904)
Epoch Orbit8408
Epoch Day34.55057859
Epoch Year2025
RAAN75.1528
Inclination5.6654
Eccentricity0.0003323
Argument of Perigee252.5322
Mean Anonmoly334.9776
Mean Motion1.00271287
Decay Rate-2.13E-06
L11 27380U 02007A 25034.55057859 -.00000213 00000+0 00000+0 0 9992
L22 27380 5.6654 75.1528 0003323 252.5322 334.9776 1.00271287 84085



Live tracking and technical data element details for INTELSAT 904 (IS-904) (NORAD 27380). INTELSAT 904 (IS-904) can be tracked NOW for your location showing map with azimuth and elevation plus other details from your city location.







IsCatalogInMostPopularTable: catalog: 27380, numindb: 664
Update: records affected: 1



GetName: 27380 INTELSAT 904 (IS-904)

Hit Count: updated at: Sat, 17 May 2025 06:35:15 GMT